Montgomery, AL

2:42 AM CST on January 22, 2017 (GMT -0600)
Montgomery Regional

Weather History for KMGM - August, 2013

Change the Weather History Date:

Thursday, August 29, 2013

  Actual Average Record
Temperature  
Mean Temperature 81 °F 80 °F  
Max Temperature 93 °F 91 °F 102 °F (1951)
Min Temperature 69 °F 70 °F 56 °F (1992)
Cooling Degree Days 16 15  
Month to date cooling degree days 459 481  
Year to date cooling degree days 1785 1760  
Since 1 June cooling degree days 1426 1421  
Growing Degree Days 31 (Base 50)    
Moisture  
Dew Point 70 °F    
Average Humidity 70    
Maximum Humidity 90    
Minimum Humidity 49    
Precipitation  
Precipitation 0.00 in 0.13 in 2.77 in (1974)
Month to date precipitation 2.78 3.71  
Year to date precipitation 41.70 36.46  
Sea Level Pressure  
Sea Level Pressure 30.01 in    
Wind  
Wind Speed 5 mph (West)    
Max Wind Speed 12 mph    
Max Gust Speed 16 mph    
Visibility 9 miles    
Events      
T = Trace of Precipitation, MM = Missing Value Source: NWS Daily Summary

Daily Weather History Graph

Daily Weather History Graph

Search for Another Location

Airport or City:

Trip Planner

Search our weather history database for the weather conditions in past years. The results will help you decide how hot, cold, wet, or windy it might be!

Date:

Astronomy

Aug. 29, 2013 Rise Set
Actual Time 6:18 AM CDT 7:13 PM CDT
Civil Twilight 5:53 AM CDT 7:38 PM CDT
Nautical Twilight 5:24 AM CDT 8:08 PM CDT
Astronomical Twilight 4:53 AM CDT 8:38 PM CDT
Moon 12:20 AM CDT (8/29) 2:31 PM CDT (8/29)
Length of Visible Light 13h 44m
Length of Day
12h 54m
Last Quarter, 38% of the Moon is Illuminated
Aug 29
Last Quarter
Sep 5
New
Sep 12
First Quarter
Sep 19
Full
Sep 26
Last Quarter

Hourly Weather History & Observations

Time (CDT) Temp. Heat Index Dew Point Humidity Pressure Visibility Wind Dir Wind Speed Gust Speed Precip Events Conditions
12:53 AM 72.0 °F - 68.0 °F 87% 30.03 in 10.0 mi Calm Calm - N/A   Clear
1:53 AM 72.0 °F - 66.9 °F 84% 30.03 in 8.0 mi SSW 5.8 mph - N/A   Clear
2:53 AM 71.1 °F - 66.9 °F 87% 30.02 in 9.0 mi SSW 4.6 mph - N/A   Clear
3:53 AM 70.0 °F - 66.9 °F 90% 30.02 in 8.0 mi Calm Calm - N/A   Clear
4:53 AM 70.0 °F - 66.0 °F 87% 30.02 in 8.0 mi Calm Calm - N/A   Clear
5:53 AM 69.1 °F - 66.0 °F 90% 30.04 in 6.0 mi Calm Calm - N/A   Clear
6:53 AM 70.0 °F - 66.9 °F 90% 30.06 in 5.0 mi Calm Calm - N/A   Clear
7:53 AM 73.9 °F - 69.1 °F 85% 30.07 in 7.0 mi Calm Calm - N/A   Clear
8:53 AM 80.1 °F 83.2 °F 70.0 °F 71% 30.07 in 10.0 mi West 6.9 mph - N/A   Clear
9:53 AM 84.0 °F 87.8 °F 69.1 °F 61% 30.07 in 10.0 mi WNW 10.4 mph - N/A   Clear
10:53 AM 87.1 °F 92.0 °F 70.0 °F 57% 30.06 in 10.0 mi NW 10.4 mph - N/A   Clear
11:53 AM 89.1 °F 94.1 °F 70.0 °F 53% 30.04 in 10.0 mi West 9.2 mph - N/A   Clear
12:53 PM 91.0 °F 96.6 °F 70.0 °F 50% 30.03 in 10.0 mi West 10.4 mph - N/A   Partly Cloudy
1:53 PM 90.0 °F 95.4 °F 70.0 °F 52% 30.01 in 10.0 mi WNW 6.9 mph - N/A   Scattered Clouds
2:53 PM 93.0 °F 100.1 °F 71.1 °F 49% 29.98 in 10.0 mi NW 8.1 mph - N/A   Clear
3:53 PM 90.0 °F 96.4 °F 71.1 °F 54% 29.98 in 10.0 mi West 9.2 mph - N/A   Scattered Clouds
4:53 PM 91.0 °F 98.2 °F 72.0 °F 53% 29.97 in 10.0 mi West 5.8 mph - N/A   Partly Cloudy
5:53 PM 89.1 °F 95.0 °F 71.1 °F 55% 29.96 in 10.0 mi West 6.9 mph - N/A   Clear
6:53 PM 84.9 °F 91.4 °F 73.0 °F 67% 29.96 in 10.0 mi WSW 3.5 mph - N/A   Clear
7:53 PM 82.0 °F 87.4 °F 73.0 °F 74% 29.97 in 10.0 mi WSW 5.8 mph - N/A   Clear
8:53 PM 79.0 °F - 73.0 °F 82% 29.99 in 9.0 mi SW 3.5 mph - N/A   Clear
9:53 PM 78.1 °F - 73.0 °F 84% 29.98 in 8.0 mi SW 3.5 mph - N/A   Clear
10:53 PM 77.0 °F - 73.0 °F 88% 29.99 in 7.0 mi WSW 3.5 mph - N/A   Clear
11:53 PM 77.0 °F - 72.0 °F 84% 29.98 in 7.0 mi WNW 4.6 mph - N/A   Clear